LU4HH-11 Weather Reports


time (UTC)temp
F
wind
direction
speed
knots
gust
knots
rain 1hr
in
rain 24hr
in
rain mn
in
humidity
%
barometer
mb
20260507153041 79 0 0.0 0.0 0.00 0.00 0.00 31 960.0
20260507152926 79 0 0.0 0.0 0.00 0.00 0.00 31 960.0
20260507151916 78 0 0.0 0.0 0.00 0.00 0.00 32 960.0
20260507150906 78 0 0.0 0.0 0.00 0.00 0.00 32 960.0
20260507145856 78 0 0.0 0.0 0.00 0.00 0.00 33 960.0
20260507144846 73 0 0.0 0.0 0.00 0.00 0.00 38 960.0
20260507143836 79 0 0.0 0.0 0.00 0.00 0.00 33 960.0
20260507142826 79 0 0.0 0.0 0.00 0.00 0.00 31 960.0
20260507141816 80 0 0.0 0.0 0.00 0.00 0.00 33 960.0
20260507140806 79 0 0.0 0.0 0.00 0.00 0.00 32 960.0
20260507135756 79 0 0.0 0.0 0.00 0.00 0.00 32 960.0
20260507134746 79 0 0.0 0.0 0.00 0.00 0.00 35 960.0
20260507133736 77 0 0.0 0.0 0.00 0.00 0.00 38 960.0
20260507132726 81 0 0.0 0.0 0.00 0.00 0.00 33 960.0
20260507131716 81 0 0.0 0.0 0.00 0.00 0.00 32 960.0
20260507130706 81 0 0.0 0.0 0.00 0.00 0.00 33 960.0
20260507125656 81 0 0.0 0.0 0.00 0.00 0.00 34 960.0
20260507124646 81 0 0.0 0.0 0.00 0.00 0.00 34 960.0
20260507123636 81 0 0.0 0.0 0.00 0.00 0.00 34 959.0
20260507122626 81 0 0.0 0.0 0.00 0.00 0.00 34 959.0
20260507121616 81 0 0.0 0.0 0.00 0.00 0.00 33 959.0
20260507120606 81 0 0.0 0.0 0.00 0.00 0.00 33 958.0
20260507115556 81 0 0.0 0.0 0.00 0.00 0.00 31 959.0
20260507114546 81 0 0.0 0.0 0.00 0.00 0.00 34 959.0
20260507113536 81 0 0.0 0.0 0.00 0.00 0.00 34 959.0
20260507112526 81 0 0.0 0.0 0.00 0.00 0.00 34 959.0
20260507111516 81 0 0.0 0.0 0.00 0.00 0.00 34 958.0
20260507110506 81 0 0.0 0.0 0.00 0.00 0.00 35 957.0
20260507105456 81 0 0.0 0.0 0.00 0.00 0.00 35 956.0
20260507104446 81 0 0.0 0.0 0.00 0.00 0.00 35 956.0
20260507103436 82 0 0.0 0.0 0.00 0.00 0.00 36 956.0
20260507102426 82 0 0.0 0.0 0.00 0.00 0.00 36 957.0
20260507101416 82 0 0.0 0.0 0.00 0.00 0.00 36 956.0
20260507100406 82 0 0.0 0.0 0.00 0.00 0.00 36 956.0
20260507095357 82 0 0.0 0.0 0.00 0.00 0.00 37 956.0
20260507094346 82 0 0.0 0.0 0.00 0.00 0.00 37 956.0
20260507093336 83 0 0.0 0.0 0.00 0.00 0.00 36 956.0
20260507092326 83 0 0.0 0.0 0.00 0.00 0.00 36 957.0
20260507091316 83 0 0.0 0.0 0.00 0.00 0.00 36 956.0
20260507090306 83 0 0.0 0.0 0.00 0.00 0.00 36 956.0
20260507085256 83 0 0.0 0.0 0.00 0.00 0.00 36 955.0
20260507084246 83 0 0.0 0.0 0.00 0.00 0.00 36 956.0
20260507083236 83 0 0.0 0.0 0.00 0.00 0.00 37 956.0
20260507082226 83 0 0.0 0.0 0.00 0.00 0.00 37 956.0
20260507081216 83 0 0.0 0.0 0.00 0.00 0.00 37 956.0
20260507080206 83 0 0.0 0.0 0.00 0.00 0.00 37 956.0
20260507075156 83 0 0.0 0.0 0.00 0.00 0.00 38 956.0
20260507074146 83 0 0.0 0.0 0.00 0.00 0.00 38 956.0
20260507073136 83 0 0.0 0.0 0.00 0.00 0.00 40 956.0
20260507072126 83 0 0.0 0.0 0.00 0.00 0.00 40 956.0
20260507071116 83 0 0.0 0.0 0.00 0.00 0.00 40 956.0
20260507070106 83 0 0.0 0.0 0.00 0.00 0.00 41 956.0
20260507065055 83 0 0.0 0.0 0.00 0.00 0.00 41 956.0
20260507064046 83 0 0.0 0.0 0.00 0.00 0.00 42 956.0
20260507063036 84 0 0.0 0.0 0.00 0.00 0.00 42 955.0
20260507062025 84 0 0.0 0.0 0.00 0.00 0.00 42 955.0
20260507061016 84 0 0.0 0.0 0.00 0.00 0.00 42 955.0
20260507060005 84 0 0.0 0.0 0.00 0.00 0.00 43 955.0
20260507054955 84 0 0.0 0.0 0.00 0.00 0.00 43 955.0
20260507053945 84 0 0.0 0.0 0.00 0.00 0.00 44 955.0
20260507052935 84 0 0.0 0.0 0.00 0.00 0.00 44 955.0
20260507051925 84 0 0.0 0.0 0.00 0.00 0.00 45 955.0
20260507050915 84 0 0.0 0.0 0.00 0.00 0.00 46 955.0
20260507045905 85 0 0.0 0.0 0.00 0.00 0.00 46 955.0
20260507044855 85 0 0.0 0.0 0.00 0.00 0.00 48 954.0
20260507043845 85 0 0.0 0.0 0.00 0.00 0.00 47 954.0
20260507042835 85 0 0.0 0.0 0.00 0.00 0.00 47 954.0
20260507041825 85 0 0.0 0.0 0.00 0.00 0.00 48 955.0
20260507040815 85 0 0.0 0.0 0.00 0.00 0.00 48 954.0
20260507035805 85 0 0.0 0.0 0.00 0.00 0.00 49 954.0
20260507034755 85 0 0.0 0.0 0.00 0.00 0.00 50 954.0
20260507033745 86 0 0.0 0.0 0.00 0.00 0.00 50 954.0
20260507032735 86 0 0.0 0.0 0.00 0.00 0.00 50 954.0
20260507032619 86 0 0.0 0.0 0.00 0.00 0.00 50 954.0
20260507031609 86 0 0.0 0.0 0.00 0.00 0.00 50 954.0
20260507030559 86 0 0.0 0.0 0.00 0.00 0.00 50 953.0
20260507025549 86 0 0.0 0.0 0.00 0.00 0.00 50 953.0
20260507024539 86 0 0.0 0.0 0.00 0.00 0.00 50 953.0
20260507023529 86 0 0.0 0.0 0.00 0.00 0.00 50 953.0
20260507022519 86 0 0.0 0.0 0.00 0.00 0.00 50 953.0
20260507021509 86 0 0.0 0.0 0.00 0.00 0.00 50 953.0
20260507020459 86 0 0.0 0.0 0.00 0.00 0.00 50 953.0
20260507015449 86 0 0.0 0.0 0.00 0.00 0.00 50 953.0
20260507014439 86 0 0.0 0.0 0.00 0.00 0.00 50 954.0
20260507013429 86 0 0.0 0.0 0.00 0.00 0.00 50 953.0
20260507012419 86 0 0.0 0.0 0.00 0.00 0.00 50 953.0
20260507011409 86 0 0.0 0.0 0.00 0.00 0.00 49 953.0
20260507010359 87 0 0.0 0.0 0.00 0.00 0.00 50 953.0
20260507005349 87 0 0.0 0.0 0.00 0.00 0.00 50 953.0
20260507004339 87 0 0.0 0.0 0.00 0.00 0.00 50 953.0
20260507003329 87 0 0.0 0.0 0.00 0.00 0.00 50 952.0
20260507002319 87 0 0.0 0.0 0.00 0.00 0.00 50 952.0
20260507001309 87 0 0.0 0.0 0.00 0.00 0.00 50 952.0
20260507000259 87 0 0.0 0.0 0.00 0.00 0.00 50 952.0
20260506235249 87 0 0.0 0.0 0.00 0.00 0.00 50 952.0
20260506234239 87 0 0.0 0.0 0.00 0.00 0.00 51 952.0
20260506233229 86 0 0.0 0.0 0.00 0.00 0.00 51 952.0
20260506232219 85 0 0.0 0.0 0.00 0.00 0.00 51 952.0
20260506231209 84 0 0.0 0.0 0.00 0.00 0.00 53 951.0
20260506230159 84 0 0.0 0.0 0.00 0.00 0.00 54 951.0
20260506225149 84 0 0.0 0.0 0.00 0.00 0.00 54 951.0
20260506224139 83 0 0.0 0.0 0.00 0.00 0.00 54 951.0
20260506223129 84 0 0.0 0.0 0.00 0.00 0.00 54 950.0
20260506222119 84 0 0.0 0.0 0.00 0.00 0.00 54 950.0
20260506221109 84 0 0.0 0.0 0.00 0.00 0.00 54 950.0
20260506220059 83 0 0.0 0.0 0.00 0.00 0.00 54 950.0
20260506215049 84 0 0.0 0.0 0.00 0.00 0.00 54 949.0
20260506214039 84 0 0.0 0.0 0.00 0.00 0.00 54 949.0
20260506213029 83 0 0.0 0.0 0.00 0.00 0.00 54 949.0
20260506212019 83 0 0.0 0.0 0.00 0.00 0.00 54 949.0
20260506211009 83 0 0.0 0.0 0.00 0.00 0.00 54 949.0
20260506205959 83 0 0.0 0.0 0.00 0.00 0.00 54 949.0
20260506204949 83 0 0.0 0.0 0.00 0.00 0.00 54 949.0
20260506203939 83 0 0.0 0.0 0.00 0.00 0.00 55 949.0
20260506202929 83 0 0.0 0.0 0.00 0.00 0.00 55 949.0
20260506201919 82 0 0.0 0.0 0.00 0.00 0.00 56 950.0
20260506200908 81 0 0.0 0.0 0.00 0.00 0.00 58 950.0
20260506195858 82 0 0.0 0.0 0.00 0.00 0.00 56 950.0
20260506194848 82 0 0.0 0.0 0.00 0.00 0.00 56 950.0
20260506193839 81 0 0.0 0.0 0.00 0.00 0.00 57 950.0
20260506192828 80 0 0.0 0.0 0.00 0.00 0.00 59 950.0
20260506191818 80 0 0.0 0.0 0.00 0.00 0.00 59 950.0
20260506190808 78 0 0.0 0.0 0.00 0.00 0.00 64 950.0
20260506185758 80 0 0.0 0.0 0.00 0.00 0.00 60 950.0
20260506184748 82 0 0.0 0.0 0.00 0.00 0.00 57 950.0
20260506183738 82 0 0.0 0.0 0.00 0.00 0.00 57 951.0
20260506182728 82 0 0.0 0.0 0.00 0.00 0.00 57 951.0
20260506181718 82 0 0.0 0.0 0.00 0.00 0.00 57 951.0
20260506180708 81 0 0.0 0.0 0.00 0.00 0.00 58 951.0
20260506175658 81 0 0.0 0.0 0.00 0.00 0.00 58 951.0
20260506174648 79 0 0.0 0.0 0.00 0.00 0.00 62 951.0
20260506173639 78 0 0.0 0.0 0.00 0.00 0.00 63 951.0
20260506172628 81 0 0.0 0.0 0.00 0.00 0.00 57 951.0
20260506171618 81 0 0.0 0.0 0.00 0.00 0.00 57 952.0
20260506170608 81 0 0.0 0.0 0.00 0.00 0.00 57 952.0
20260506165558 81 0 0.0 0.0 0.00 0.00 0.00 56 952.0
20260506164548 81 0 0.0 0.0 0.00 0.00 0.00 57 952.0
20260506163538 81 0 0.0 0.0 0.00 0.00 0.00 57 952.0
20260506162528 81 0 0.0 0.0 0.00 0.00 0.00 57 953.0
20260506161518 81 0 0.0 0.0 0.00 0.00 0.00 57 953.0
20260506160508 81 0 0.0 0.0 0.00 0.00 0.00 57 953.0
20260506155458 81 0 0.0 0.0 0.00 0.00 0.00 57 953.0
20260506154448 81 0 0.0 0.0 0.00 0.00 0.00 57 954.0